This is the latest recevied weather packets stored in our database for station/object HB9CJD-1. If no packets are shown the sender has not sent any weather packets the latest 10 day(s).
| Time | Temp. | Humidity | Pressure | Rain* | Wind** | Luminosity | Snow |
|---|---|---|---|---|---|---|---|
| 1777818399 | 25° C | 28% | 1015.6 hPa | - | - | - | - |
| 1777818398 | 25° C | 28% | 1015.6 hPa | - | - | - | - |
| 1777817795 | 25.56° C | 27% | 1015.6 hPa | - | - | - | - |
| 1777817795 | 25.56° C | 27% | 1015.6 hPa | - | - | - | - |
| 1777817192 | 26.11° C | 28% | 1015.7 hPa | - | - | - | - |
| 1777817192 | 26.11° C | 28% | 1015.7 hPa | - | - | - | - |
| 1777816589 | 26.67° C | 30% | 1015.7 hPa | - | - | - | - |
| 1777816588 | 26.67° C | 30% | 1015.7 hPa | - | - | - | - |
| 1777815986 | 26.67° C | 30% | 1015.9 hPa | - | - | - | - |
| 1777815985 | 26.67° C | 30% | 1015.9 hPa | - | - | - | - |
| 1777815383 | 26.11° C | 37% | 1016 hPa | - | - | - | - |
| 1777815382 | 26.11° C | 37% | 1016 hPa | - | - | - | - |
| 1777814779 | 25.56° C | 32% | 1016.1 hPa | - | - | - | - |
| 1777814779 | 25.56° C | 32% | 1016.1 hPa | - | - | - | - |
| 1777814176 | 25.56° C | 31% | 1016.3 hPa | - | - | - | - |
| 1777814175 | 25.56° C | 31% | 1016.3 hPa | - | - | - | - |
| 1777813572 | 25.56° C | 28% | 1016.2 hPa | - | - | - | - |
| 1777813572 | 25.56° C | 28% | 1016.2 hPa | - | - | - | - |
| 1777812969 | 25.56° C | 31% | 1016.4 hPa | - | - | - | - |
| 1777812969 | 25.56° C | 31% | 1016.4 hPa | - | - | - | - |
| 1777812366 | 25° C | 31% | 1016.5 hPa | - | - | - | - |
| 1777812366 | 25° C | 31% | 1016.5 hPa | - | - | - | - |
| 1777811763 | 25.56° C | 32% | 1016.5 hPa | - | - | - | - |
| 1777811762 | 25.56° C | 32% | 1016.5 hPa | - | - | - | - |
| 1777811160 | 25° C | 35% | 1016.6 hPa | - | - | - | - |
* Rain since midnight (hover to see other rain measurements)
** Current wind speed in m/s (hover to see current wind gust speed)